Skip Page Navigation
NASA JPL Caltech
NASA Logo - Jet Propulsion Laboratory + View the NASA Portal
+ Center for Near-Earth Object Studies
JPL Home Earth Solar System Stars & Galaxies Technology
JPL Solar System Dynamics
BODIES ORBITS EPHEMERIDES TOOLS PHYSICAL DATA DISCOVERY FAQ SITE MAP
JPL Small-Body Database Browser
Search: [ help ]  
193798 (2001 PF8)
Classification: Main-belt Asteroid          SPK-ID: 2193798
Ephemeris | Orbit Diagram | Orbital Elements | Mission Design | Physical Parameters | Discovery Circumstances | Close-Approach Data ]

[ hide orbit diagram ]

For accurate long-term ephemerides, please instead use our Horizons system.This orbit viewer was implemented using two-body methods, and hence should not be used for determining accurate long-term trajectories (over several years or decades) or planetary encounter circumstances.


Orbital Elements at Epoch 2459200.5 (2020-Dec-17.0) TDB
Reference: JPL 16 (heliocentric ecliptic J2000)
 Element Value Uncertainty (1-sigma)   Units 
e .2200800112006487 3.6053e-08  
a 2.234458011251364 9.9014e-09 au
q 1.742698467107785 8.1786e-08 au
i 6.808978759838535 5.5408e-06 deg
node 46.85447361753527 3.6406e-05 deg
peri 248.9369371945603 4.0034e-05 deg
M 303.0872905936628 1.9299e-05 deg
tp 2459393.369468839610
(2021-Jun-27.86946884)
6.6258e-05 TDB
period 1219.991272714355
3.34
8.1091e-06
2.22e-08
d
yr
n .2950840781008515 1.9614e-09 deg/d
Q 2.726217555394944 1.208e-08 au
  Orbit Determination Parameters
   # obs. used (total)      283  
   data-arc span      7778 days (21.30 yr)  
   first obs. used      1998-10-17  
   last obs. used      2020-02-02  
   planetary ephem.      DE441  
   SB-pert. ephem.      SB441-N16  
   condition code      0  
   norm. resid. RMS      .6908  
   source      ORB  
   producer      Otto Matic  
   solution date      2021-Apr-13 22:21:47  

Additional Information
 Earth MOID = .739271 au 
 Jupiter MOID = 2.50135 au 
 T_jup = 3.598 
[ show covariance matrix ]

Ephemeris | Orbit Diagram | Orbital Elements | Mission Design | Physical Parameters | Discovery Circumstances | Close-Approach Data ]

Physical Parameter Table
Parameter Symbol Value Units Sigma Reference Notes
absolute magnitude H 17.35   n/a E2021B55  

193798 (2001 PF8)          Discovered 2001-Aug-11 by NEAT at Palomar
Reference: 20081113/Numbers.arcLast Updated: 2008-11-17

[ show close-approach data ]
Alternate Designations
 2001 PF8 = 1998 UR47 
Ephemeris | Orbit Diagram | Orbital Elements | Mission Design | Physical Parameters | Discovery Circumstances | Close-Approach Data ]
ABOUT SSD CREDITS/AWARDS PRIVACY/COPYRIGHT GLOSSARY LINKS
FirstGov 2021-Jun-25 14:11 UT
(server date/time)  
NASA Home Page
Site Manager:   Ryan S. Park
Webmaster  Alan B. Chamberlin